"Pseudo-MPEC" for N00fiaz

Created 2019 Oct 17 0:07:06 UT using Find_Orb

Click here for an explanation of pseudo-MPECs

 
 Astrometry: 
     N00fiaz  S2019 10 01FFUXK$r`XJE[%W:m;u7y+x#/C/#fnh2:wD@!b8bt=aVB?JiZEZ3*C51
     N00fiaz  s2019 10 0137mVFpv:8b.5,NkIg-w^nSZgWI!V]5`pLT'L$W@=@NRL#wOD*M(yC51
     N00fiaz  S2019 10 01Zb@8eBHHW/s]=TcA1)^Q1kXhhafs4nLI0FaOhcRyrK6iYSej\#vHC51
     N00fiaz  s2019 10 01n.67oWd^Kj-66HeY1=2^B#'!VlFmpv;*+USbs7hcx$TFCg2;yp]wC51
     N00fiaz  S2019 10 0193D_:[AX?hrCad1KiYc2FOMEEev$5@=o4R6mKp[w9vaJG$mZAp-oC51
     N00fiaz  s2019 10 01L\EPKfG@y0G$\@YcDZA8;rAfAstrometryY!5,][6b!^(U78#?_9C51
     N00fiaz  S2019 10 01r[7SWOnM!i:[EOg\d#Ee;MASfxI_7Aredacted;x0Vic3?1;tT/UC51
     N00fiaz  s2019 10 01y8v\#T'hoTct;KYSF1c#!jtkclick+nE:$yS[VTbx$pEW,$dRj'/C51
     N00fiaz  S2019 10 02Ea?R+gREQSF2cTN;2xWmCiyHS+l[;7Bo0OTQ'TwX-wjJQrfpC1:fC51
     N00fiaz  s2019 10 02d@o.UdyQ3/h:-B7e*4/T@'@^xI8*3.$\Y!o14X7Vryy0d]xt7!2VC51
     N00fiaz  S2019 10 02SP%E48S9uoLPd]dvOAoNt%lW#fHvBZRO0XuyJN8yxdObn9Qi.Y=gC51
     N00fiaz  s2019 10 02KtD8v@4WMcA_^@/32c1wlMS`f*)NcF;ht`ZqZn(-2IFJDV7Vs-e*C51
     N00fiaz  S2019 10 02`pj/yhere-0:v^T0Ufor5%]vkaC;+SSaLUok_Uq0[caE#7)2H9G'C51
     N00fiaz  s2019 10 02PCr7@gvs@^yP-kiSpQXvtIZ,qsSRIP$;qlexplanation7DfuD\5C51
     N00fiaz  S2019 10 02`S+9I]V[YP+m\Vfic6sgQDYhiF3bT--WDrlXwK8.8'q(T^3yUhsUC51
     N00fiaz  s2019 10 02Z(1]5yF=K9uMjF?x^o@T.SSL/uj\PJdaaTZ`w1mr8^rW\11,Qf:_C51

Station data:
(C51) WISE. Measurers A. Mainzer, E. Wright, J. Bauer, T. Grav, J. Dailey, J.
   Masiero, R. Cutri, R. McMillan, R. Walker.

Orbital elements:  N00fiaz
   Perihelion 2019 Nov 12.148061 +/- 365 TT =  3:33:12 (JD 2458799.648061)
Epoch 2019 Oct  2.0 TT = JDT 2458758.5   Earth MOID: 0.0142   AutoNEOCP
M 342.06616971 +/- 70               (J2000 ecliptic)
n   0.43583657 +/- 0.285            Peri.  182.44725 +/- 70
a   1.72287432 +/- 0.75             Node   224.35459 +/- 70
e   0.4331518 +/- 0.19              Incl.    5.34344 +/- 60
P   2.26/825.98d           H 20.9   G  0.15   U 11.9  SR
q 0.97660809 +/- 1.28    Q 2.46914055 +/- 10.9
From 8 observations 2019 Oct. 1-2 (17.3 hr); mean residual 0".47
Residuals in arcseconds: 
191001 C51  .12-  .51-    191001 C51  .34+  .11+    191002 C51  .22+  .19-    
191001 C51  .52-  .41+    191002 C51  .95+  .37+    191002 C51  1.1-  .34-    
191001 C51  .21-  .06-    191002 C51  .45+  .22+    

Ephemerides (geocentric):
Date (UTC) HH   RA              Dec         delta   r     elong  mag " sig PA
---- -- -- --  -------------   -----------  ------ ------ -----  --- ---- ---
2019 10 17 00  19 51 33.294   -01 04 32.11  .13608 1.0207  96.3 19.2 1549  10
2019 10 17 01  19 51 33.688   -01 05 16.49  .13594 1.0206  96.3 19.2 1558  10
2019 10 17 02  19 51 34.086   -01 06 00.95  .13581 1.0205  96.2 19.2 1566  10
2019 10 17 03  19 51 34.489   -01 06 45.50  .13567 1.0203  96.2 19.2 1574  10
2019 10 17 04  19 51 34.895   -01 07 30.13  .13553 1.0202  96.2 19.2 1582  10
2019 10 17 05  19 51 35.305   -01 08 14.84  .13539 1.0201  96.1 19.2 1591  10
2019 10 17 06  19 51 35.720   -01 08 59.63  .13525 1.0199  96.1 19.2 1599  10
2019 10 17 07  19 51 36.139   -01 09 44.51  .13511 1.0198  96.0 19.2 1608  10
2019 10 17 08  19 51 36.561   -01 10 29.48  .13497 1.0197  96.0 19.2 1616  10
2019 10 17 09  19 51 36.988   -01 11 14.53  .13484 1.0195  96.0 19.2 1624  10
2019 10 17 10  19 51 37.419   -01 11 59.67  .13470 1.0194  95.9 19.2 1633  10
2019 10 17 11  19 51 37.854   -01 12 44.89  .13456 1.0193  95.9 19.2 1641  10
2019 10 17 12  19 51 38.293   -01 13 30.20  .13442 1.0191  95.8 19.2 1650  10
2019 10 17 13  19 51 38.736   -01 14 15.59  .13428 1.0190  95.8 19.2 1658  10
2019 10 17 14  19 51 39.183   -01 15 01.08  .13414 1.0189  95.8 19.2 1667  10
2019 10 17 15  19 51 39.634   -01 15 46.64  .13400 1.0187  95.7 19.2 1675  10
2019 10 17 16  19 51 40.089   -01 16 32.30  .13386 1.0186  95.7 19.2 1684  10
2019 10 17 17  19 51 40.548   -01 17 18.05  .13373 1.0185  95.6 19.2 1692  10
2019 10 17 18  19 51 41.011   -01 18 03.88  .13359 1.0183  95.6 19.2 1701  11
2019 10 17 19  19 51 41.478   -01 18 49.80  .13345 1.0182  95.6 19.2 1710  11
2019 10 17 20  19 51 41.950   -01 19 35.81  .13331 1.0181  95.5 19.2 1718  11
2019 10 17 21  19 51 42.425   -01 20 21.92  .13317 1.0179  95.5 19.2 1727  11
2019 10 17 22  19 51 42.904   -01 21 08.11  .13303 1.0178  95.4 19.2 1736  11
2019 10 17 23  19 51 43.388   -01 21 54.39  .13289 1.0177  95.4 19.2 1744  11
2019 10 18 00  19 51 43.875   -01 22 40.76  .13275 1.0176  95.4 19.2 1753  11
2019 10 18 01  19 51 44.367   -01 23 27.22  .13261 1.0174  95.3 19.2 1762  11
2019 10 18 02  19 51 44.862   -01 24 13.77  .13247 1.0173  95.3 19.2 1770  11
2019 10 18 03  19 51 45.362   -01 25 00.42  .13233 1.0172  95.3 19.2 1779  11
2019 10 18 04  19 51 45.865   -01 25 47.16  .13219 1.0170  95.2 19.2 1788  11
2019 10 18 05  19 51 46.373   -01 26 33.99  .13205 1.0169  95.2 19.2 1797  11
2019 10 18 06  19 51 46.884   -01 27 20.91  .13191 1.0168  95.1 19.2 1806  11
2019 10 18 07  19 51 47.400   -01 28 07.92  .13177 1.0166  95.1 19.2 1815  11
2019 10 18 08  19 51 47.919   -01 28 55.03  .13163 1.0165  95.1 19.2 1823  11
2019 10 18 09  19 51 48.443   -01 29 42.23  .13149 1.0164  95.0 19.2 1832  11
2019 10 18 10  19 51 48.970   -01 30 29.53  .13135 1.0163  95.0 19.2 1841  11
2019 10 18 11  19 51 49.502   -01 31 16.92  .13121 1.0161  94.9 19.2 1850  11
2019 10 18 12  19 51 50.038   -01 32 04.41  .13107 1.0160  94.9 19.2 1859  11
2019 10 18 13  19 51 50.577   -01 32 51.99  .13093 1.0159  94.9 19.2 1868  11
2019 10 18 14  19 51 51.121   -01 33 39.66  .13079 1.0157  94.8 19.2 1877  11
2019 10 18 15  19 51 51.668   -01 34 27.44  .13065 1.0156  94.8 19.2 1886  11
2019 10 18 16  19 51 52.220   -01 35 15.31  .13051 1.0155  94.7 19.2 1895  11
2019 10 18 17  19 51 52.776   -01 36 03.27  .13037 1.0154  94.7 19.2 1904  11
2019 10 18 18  19 51 53.335   -01 36 51.34  .13023 1.0152  94.7 19.2 1913  11
2019 10 18 19  19 51 53.899   -01 37 39.50  .13009 1.0151  94.6 19.2 1922  11
2019 10 18 20  19 51 54.466   -01 38 27.76  .12995 1.0150  94.6 19.2 1932  11
2019 10 18 21  19 51 55.038   -01 39 16.11  .12981 1.0148  94.5 19.2 1941  11
2019 10 18 22  19 51 55.613   -01 40 04.57  .12967 1.0147  94.5 19.2 1950  11
2019 10 18 23  19 51 56.193   -01 40 53.13  .12953 1.0146  94.5 19.2 1959  11